x

Mount Batten (03827) Weather Station

7:00 - Tue 9th Feb 2016 All times are GMT.

  • Wind
    21mph, 36mph gusts
  • Air Temp 40°f
  • Sea Pressure 993mb
  • Mount Batten
  • Mount Batten

More Historic Weather Station data

Upgrade to MSW Pro to gain access to the past 30 days of data for over 8000 Wavebouys and Weather Stations around the globe.

Join Pro

Comparision Forecast

View Surf forecast
   
mar. 02/09 7:00 21 36 mph 993mb 40f
5:00 17 40 mph 992mb 40f
4:00 19 36 mph 991mb 42f
2:00 10
mph
989mb 42f
1:00 15
mph
989mb 40f
12:00 22 33 mph 989mb 40f
11:00 11
mph
988mb 44f
10:00 9
mph
988mb 43f
8:00 7
mph
988mb 42f
7:00 6
mph
988mb 41f
6:00  -  mph 989mb 41f
5:00 5
mph
990mb 42f
4:00 9 33 mph 992mb 42f
3:00 16 29 mph 993mb 45f
2:00 15 29 mph 995mb 46f
1:00 22 33 mph 996mb 45f
lun. 02/08 11:00 28 39 mph 998mb 44f
10:00 25 40 mph 998mb 44f
8:00 24 44 mph 998mb 44f
7:00 25 45 mph 998mb 45f
6:00 32 48 mph 998mb 46f
4:00 38 59 mph 996mb 46f
3:00 37 61 mph 995mb 49f
2:00 41 60 mph 994mb 49f
1:00 41 61 mph 993mb 49f
12:00 37 60 mph 992mb 48f
11:00 43 66 mph 991mb 48f
10:00 37 61 mph 990mb 48f
9:00 39 61 mph 989mb 47f
8:00 40 61 mph 988mb 46f
7:00 40 66 mph 988mb 45f
6:00 39 59 mph 988mb 45f
5:00 38 54 mph 988mb 45f
4:00 31 66 mph 988mb 43f
3:00 33 56 mph 987mb 44f
2:00 32 57 mph 988mb 44f
1:00 31 52 mph 988mb 45f
12:00 31 59 mph 988mb 47f
dim. 02/07 11:00 37 49 mph 988mb 50f
10:00 30 59 mph 988mb 48f
9:00 28 46 mph 988mb 50f
8:00 26 53 mph 988mb 50f
7:00 41 59 mph 990mb 51f
6:00 40 54 mph 991mb 50f
5:00 39 49 mph 992mb 48f
4:00 33 46 mph 995mb 46f
3:00 30 45 mph 996mb 46f
2:00 24 44 mph 997mb 44f
1:00 18 40 mph 997mb 47f
12:00 26 34 mph 997mb 46f
11:00 29 37 mph 998mb 45f
10:00 19 36 mph 997mb 44f
9:00 17 31 mph 996mb 43f
8:00 18 38 mph 995mb 44f
7:00 26 46 mph 994mb 43f
6:00 25 37 mph 993mb 44f
5:00 29 41 mph 992mb 44f
4:00 23 34 mph 992mb 43f
3:00 23 48 mph 992mb 40f
2:00 21 31 mph 991mb 42f
1:00 17 37 mph 991mb 44f
sam. 02/06 11:00 22 31 mph 989mb 44f
10:00 17 38 mph 989mb 44f
9:00 22 29 mph 988mb 45f
8:00 16 30 mph 987mb 44f
6:00 22 37 mph 986mb 46f
5:00 26 47 mph 986mb 48f
4:00 36 76 mph 986mb 49f
2:00 45 62 mph 988mb 51f
1:00 43 61 mph 990mb 51f
12:00 41 61 mph 992mb 51f
11:00 46 60 mph 993mb 51f
10:00 43 59 mph 994mb 51f
9:00 43 56 mph 995mb 51f
7:00 38 48 mph 998mb 51f
6:00 36 44 mph 999mb 51f
5:00 26 43 mph 1001mb 51f
4:00 33 45 mph 1002mb 51f
3:00 16
mph
1004mb 49f
2:00 5
mph
1005mb 46f
1:00 9 41 mph 1007mb 48f
12:00 30 43 mph 1007mb 50f
ven. 02/05 11:00 25 37 mph 1008mb 50f
10:00 25 38 mph 1009mb 50f